Вернуться в каталог

ATLAS 5 CENTAUR R/B

АктивенMEO
NORAD 51282·ROCKET BODY·🇺🇸 United States

Запущен Jan 21, 2022 с Cape Canaveral Space Force Station

Loading…

Ближайшие Пролёты (ближайшие 24 часа)

TLE

СвежийSource: Space-Track

Эпоха: Sep 13, 2026, 20:06 UTC

1 51282U 22006C   26256.83767468 -.00000223  00000-0  00000-0 0  9996
2 51282   4.8284  74.9562 0262620  16.3849 344.7374  0.95003324 12032

Отслеживайте ATLAS 5 CENTAUR R/B в реальном времени с AllMySat

Download on the App Store